Visalia, CA

2:17 AM PDT on October 15, 2019 (GMT -0700)
Visalia Municipal

Weather History for KVIS - August, 2019

Change the Weather History Date:

Thursday, August 22, 2019

  Actual Average Record
Temperature  
Mean Temperature 78 °F -  
Max Temperature 95 °F 91 °F 109 °F (1931)
Min Temperature 64 °F 62 °F 52 °F (1947)
Cooling Degree Days 14    
Growing Degree Days 28 (Base 50)    
Moisture  
Dew Point 61 °F    
Average Humidity 56    
Maximum Humidity 84    
Minimum Humidity 34    
Precipitation  
Precipitation 0.00 in - - ()
Sea Level Pressure  
Sea Level Pressure 29.76 in    
Wind  
Wind Speed 3 mph (West)    
Max Wind Speed 12 mph    
Max Gust Speed -    
Visibility 10 miles    
Events      
Averages and records for this station are not official NWS values.
T = Trace of Precipitation, MM = Missing Value Source: NWS Daily Summary

Daily Weather History Graph

Daily Weather History Graph

Search for Another Location

Airport or City:

Astronomy

Aug. 22, 2019 Rise Set
Actual Time 6:21 AM PDT 7:39 PM PDT
Civil Twilight 5:54 AM PDT 8:06 PM PDT
Nautical Twilight 5:21 AM PDT 8:38 PM PDT
Astronomical Twilight 4:48 AM PDT 9:11 PM PDT
Moon 11:44 PM PDT (8/22) 12:50 PM PDT (8/22)
Length of Visible Light 14h 11m
Length of Day
13h 18m
Waning Gibbous, 58% of the Moon is Illuminated
Aug 22
Waning Gibbous
Aug 23
Last Quarter
Aug 30
New
Sep 5
First Quarter
Sep 13
Full

Hourly Weather History & Observations

Time (PDT) Temp. Heat Index Dew Point Humidity Pressure Visibility Wind Dir Wind Speed Gust Speed Precip Events Conditions
12:56 AM 73.0 °F - 60.1 °F 64% 29.82 in 10.0 mi Calm Calm - N/A   Clear
1:56 AM 73.0 °F - 57.9 °F 59% 29.81 in 10.0 mi North 3.5 mph - N/A   Clear
2:56 AM 66.9 °F - 60.1 °F 79% 29.79 in 10.0 mi Calm Calm - N/A   Clear
3:56 AM 69.1 °F - 59.0 °F 70% 29.79 in 10.0 mi WSW 3.5 mph - N/A   Clear
4:56 AM 66.0 °F - 59.0 °F 78% 29.78 in 10.0 mi SW 3.5 mph - N/A   Clear
5:56 AM 64.0 °F - 59.0 °F 84% 29.79 in 10.0 mi Calm Calm - N/A   Clear
6:56 AM 64.9 °F - 59.0 °F 81% 29.80 in 10.0 mi Calm Calm - N/A   Clear
7:56 AM 69.1 °F - 61.0 °F 75% 29.81 in 10.0 mi Calm Calm - N/A   Clear
8:56 AM 75.0 °F - 61.0 °F 62% 29.81 in 10.0 mi WSW 3.5 mph - N/A   Clear
9:56 AM 78.1 °F - 61.0 °F 56% 29.81 in 10.0 mi Variable 3.5 mph - N/A   Clear
10:56 AM 84.0 °F 84.9 °F 63.0 °F 49% 29.81 in 10.0 mi Variable 4.6 mph - N/A   Clear
11:56 AM 87.1 °F 88.3 °F 64.0 °F 46% 29.81 in 10.0 mi WNW 9.2 mph - N/A   Clear
12:56 PM 90.0 °F 91.3 °F 64.0 °F 42% 29.79 in 10.0 mi West 8.1 mph - N/A   Clear
1:56 PM 91.0 °F 90.9 °F 61.0 °F 36% 29.76 in 10.0 mi NW 6.9 mph - N/A   Clear
2:56 PM 91.9 °F 91.5 °F 60.1 °F 34% 29.73 in 10.0 mi West 11.5 mph - N/A   Clear
3:56 PM 93.9 °F 95.2 °F 63.0 °F 36% 29.71 in 10.0 mi West 8.1 mph - N/A   Clear
4:56 PM 93.9 °F 95.2 °F 63.0 °F 36% 29.69 in 10.0 mi West 10.4 mph - N/A   Clear
5:56 PM 93.0 °F 93.8 °F 62.1 °F 36% 29.68 in 10.0 mi West 8.1 mph - N/A   Clear
6:56 PM 91.0 °F 91.9 °F 63.0 °F 39% 29.68 in 10.0 mi West 4.6 mph - N/A   Clear
7:56 PM 89.1 °F 88.8 °F 60.1 °F 38% 29.69 in 10.0 mi Calm Calm - N/A   Clear
8:56 PM 82.0 °F 83.4 °F 64.0 °F 54% 29.70 in 10.0 mi Calm Calm - N/A   Clear
9:56 PM 80.1 °F 81.7 °F 64.0 °F 58% 29.72 in 10.0 mi Calm Calm - N/A   Clear
10:56 PM 77.0 °F - 64.9 °F 66% 29.71 in 10.0 mi Calm Calm - N/A   Clear
11:56 PM 75.9 °F - 62.1 °F 62% 29.72 in 10.0 mi Calm Calm - N/A   Clear